Location: Clanezzo
(45.7500°N, 9.6000°E)
Time: 03:36:32
(UTC+00:00)

Cosmos 44 - Pass Details

Date: 12 May 2021
Orbit: 571 x 791 km, 65.1° (Epoch: 18 June)

Event Time Altitude Azimuth Distance (km) Brightness Sun altitude
Rises 22:20:18 0° 319° (NW) 3,291 7.8 -24.6°
Reaches altitude 10° 22:22:51 10° 313° (NW) 2,348 6.8 -24.7°
Maximum altitude 22:27:57 44° 243° (WSW) 1,060 4.0 -24.9°
Enters shadow 22:28:03 44° 240° (WSW) 1,060 4.0 -24.9°
